Location: Krakow
(50.0830°N, 19.9170°E)
Time: 06:08:50
(UTC+01:00)

SR - Pass Details

Date: 08 February 2023
Orbit: 582 x 867 km, 66.7° (Epoch: 20 March)

Event Time Altitude Azimuth Distance (km) Brightness Sun altitude
Rises 14:50:58 0° 253° (WSW) 3,130 ? 14.3°
Reaches altitude 10° 14:53:45 10° 266° (W) 2,159 ? 14.0°
Maximum altitude 14:57:49 26° 323° (NW) 1,316 ? 13.5°
Drops below altitude 10° 15:01:39 10° 20° (NNE) 2,027 ? 13.1°
Sets 15:04:12 0° 34° (NNE) 2,898 ? 12.8°
